Regional Weather Roundup
Issued by NWS

Home | Current Version | Previous Version | Text Only | Print | Product List | Glossary Off
Versions: 1 2 3 4 5 6 7 8 9 10 11 12 13 14 15 16 17 18 19 20 21 22 23 24 25 26 27 28 29 30 31 32 33 34 35 36 37 38 39 40 41 42 43 44 45 46 47 48 49 50

275
ASUS43 KLOT 261903
RWRIL

ILLINOIS REGIONAL WEATHER ROUNDUP
NATIONAL WEATHER SERVICE CHICAGO/ROMEOVILLE IL
200 PM CDT TUE JUL 26 2016

NOTE: "FAIR" INDICATES FEW OR NO CLOUDS BELOW 12,000 FEET WITH NO
SIGNIFICANT WEATHER AND/OR OBSTRUCTIONS TO VISIBILITY.

* THESE STATIONS ARE NOT UNDER NWS QUALITY CONTROL. THEY ALSO MAY NOT
  REPORT WEATHER SUCH AS PRECIPITATION OR FOG.

ILZ001-002-007-009-015-016-024-262000-
NORTHWEST ILLINOIS

CITY           SKY/WX    TMP DP  RH WIND       PRES   REMARKS
MOLINE         MOSUNNY   86  64  47 VRB5      30.04F HX  87
STERLING*      MOSUNNY   85  65  51 CALM      30.05F HX  86
SAVANNA*       PTSUNNY   83  62  47 CALM      30.05F HX  84
$$

ILZ003-004-008-010-011-017-018-262000-
NORTH CENTRAL ILLINOIS

CITY           SKY/WX    TMP DP  RH WIND       PRES   REMARKS
ROCKFORD       MOSUNNY   85  63  47 SW5       30.06F HX  86
FREEPORT*      PTSUNNY   83  63  51 CALM      30.08F HX  84
ROCHELLE*      MOSUNNY   84  65  52 CALM      30.06F HX  85
DE KALB*       SUNNY     85  64  49 CALM      30.06F HX  86
$$

ILZ005-006-012>014-019>023-262000-
NORTHEAST ILLINOIS

CITY           SKY/WX    TMP DP  RH WIND       PRES   REMARKS
CHICAGO-OHARE  PTSUNNY   85  62  46 E3        30.03F HX  85
CHICAGO-MIDWAY PTSUNNY   86  64  47 E5        30.03F HX  87
AURORA         PTSUNNY   85  66  53 VRB3      30.05S HX  87
LANSING*       SUNNY     84  65  51 SE6       30.04F HX  86
WAUKEGAN       SUNNY     83  63  50 SE8       30.04F HX  84
DUPAGE AIRPORT MOSUNNY   86  63  45 CALM      30.03F HX  87
KANKAKEE*      MOSUNNY   85  68  56 E3        30.05F HX  89
WHEELING       MOSUNNY   85  63  47 VRB7      30.04F HX  86
MORRIS*        SUNNY     84  68  59 CALM      30.03F HX  87
NORTHERLY ISL    N/A     80  67  64 E7          N/A  HX  82
$$

LMZ740>746-262000-
SOUTHERN LAKE MICHIGAN

STATION/POSITION SKY/WX   TEMP    WIND        PRES    VSBY  WAVE
                          AIR SEA DIR/SP/G                  HT/PER
                          (F)     (DEG/KT/KT) (MB)    (MI)  (FT/S)
SOUTHERN BUOY              76 78  180/  4/  6 1017.1          0
WILMETTE HARBOR            74 72   90/  4/  4   N/A           0
HARRISON CRIB              80     110/  6/  7   N/A
BURNHAM HARBOR             80      70/  6/  6   N/A
CALUMET HARBOR             78      40/  7/  9 1017.1F
BURNS HARBOR               76      20/  7/  9 1018.3
MICHIGAN CITY              78     350/  8/  9   N/A
MICHIGAN CITY 6N           77 76   10/  6/  6   N/A           0
ST. JOSEPH                 76 78  310/  6/  8 1017.5F         0
$$

ILZ025>027-034>036-040-047-049-050-058-095>099-262000-
WEST-CENTRAL ILLINOIS

CITY           SKY/WX    TMP DP  RH WIND       PRES   REMARKS
QUINCY         MOSUNNY   85  65  51 NW6       30.04S HX  86
GALESBURG*     PTSUNNY   84  65  52 CALM      30.05S HX  86
MACOMB*        MOSUNNY   84  66  55 CALM      30.06F HX  86
JACKSONVILLE*  CLOUDY    84  70  61 N3        30.03F HX  88
PITTSFIELD*    MOSUNNY   84  70  61 CALM      30.04F HX  88
$$

ILZ028>032-037-038-041>044-048-051>054-059>061-262000-
CENTRAL ILLINOIS

CITY           SKY/WX    TMP DP  RH WIND       PRES   REMARKS
PONTIAC        MOSUNNY   85  71  62 SE5       30.04F HX  90
BLOOMINGTON    MOSUNNY   84  70  62 E6        30.05F HX  88
DECATUR        CLOUDY    84  70  62 E10       30.04F HX  88
PEORIA         MOSUNNY   87  66  49 VRB3      30.03F HX  89
LACON*         CLOUDY    83  67  57 N3        30.03S HX  86
LINCOLN*       SUNNY     86  70  60 SE3       30.03F HX  90
SPRINGFIELD    SUNNY     85  66  53 E5        30.03F HX  87
TAYLORVILLE    CLOUDY    84  73  69 MISG      30.02F HX  90
$$

ILZ033-039-045-046-055>057-062-063-262000-
EAST-CENTRAL ILLINOIS

CITY           SKY/WX    TMP DP  RH WIND       PRES   REMARKS
CHAMPAIGN      MOSUNNY   81  69  67 E8        30.05F HX  84
MATTOON        SUNNY     80  68  66 VRB7      30.03F HX  83
PARIS*         CLOUDY    81  67  63 CALM      30.05S HX  83
$$

ILZ079-100>102-262000-
SOUTHWEST ILLINOIS

CITY           SKY/WX    TMP DP  RH WIND       PRES   REMARKS
ALTON          PTSUNNY   84  73  70 VRB5      30.01F HX  91
BELLEVILLE     SUNNY     88  76  68 E5        29.98F HX  98
CAHOKIA*       PTSUNNY   89  73  59 E5        29.99F HX  97
SPARTA*        CLOUDY    82  76  83 SW7       30.01S HX  88
$$

ILZ064>066-069>071-074>076-080>082-084>086-088>090-092>094-262000-
SOUTH-CENTRAL ILLINOIS

CITY           SKY/WX    TMP DP  RH WIND       PRES   REMARKS
CARBONDALE     MOSUNNY   86  77  74 NW8       29.99F THUNDER HX  97
CAIRO*         SUNNY     89  79  71 S6        29.96F HX 104
EFFINGHAM*     PTSUNNY   82  77  86 NE3       30.04F HX  89
MARION         TSTM      82  77  83 N16G23    30.01S HX  91
MT. VERNON     MOSUNNY   88  73  62 MISG      29.98F HX  96
CENTRALIA*     PTSUNNY   86  78  75 N3        30.00F HX  99
SALEM*         SUNNY     86  75  69 NE5       30.01F HX  95
METROPOLIS*    SUNNY     91  76  62 CALM      29.98F HX 102
$$

ILZ067-068-072-073-078-083-087-091-262000-
SOUTHEAST ILLINOIS

CITY           SKY/WX    TMP DP  RH WIND       PRES   REMARKS
LAWRENCEVILLE  PTSUNNY   84  74  71 NE6       30.01F HX  91
FLORA*         MOSUNNY   86  75  68 CALM      30.01F HX  94
FAIRFIELD*     PTSUNNY   85  76  72 N5        29.99F HX  95
HARRISBURG*    MOSUNNY   87  77  73 N5        29.99F HX  98
ROBINSON*      SUNNY     80  73  76 NE3       30.03F HX  85
CARMI*         SUNNY     85  77  75 CALM      29.98F HX  96
$$

ABBREVIATIONS USED IN REMARKS
   TC - TEMPERATURE IN CELSIUS
  WCI - WIND CHILL INDEX
   HX - HEAT INDEX
  VSB - VISIBILITY
$$





USA.gov is the U.S. government's official web portal to all federal, state and local government web resources and services.